Theta_e
328 321 314 310 300 297 294 299 305 305 305 309 313 312 312 313 311 304 328 335 339 340 340 340 345 347 348 347 346 344 346 346 344 342 340 341 338 336 336 336 338 336 335 335 334 333 332 331 331
322 321 312 304 295 290 293 299 304 306 309 316 315 313 312 310 320 325 329 338 340 339 339 339 343 346 346 347 347 346 345 343 344 342 339 338 337 336 335 335 335 335 335 335 334 332 331 330 330
320 317 307 300 291 290 295 301 303 306 310 309 309 314 314 314 322 327 332 339 340 338 338 338 342 345 345 346 347 346 345 343 341 341 340 339 337 336 335 335 334 334 334 334 333 332 331 330 329
311 313 305 297 293 291 298 302 304 306 307 310 311 310 315 323 326 330 338 339 337 337 338 339 342 344 344 345 346 346 346 343 341 340 339 339 337 336 338 336 334 333 333 333 333 333 331 330 330
312 308 301 296 294 293 300 305 306 305 305 307 311 308 312 323 329 336 337 338 335 336 336 338 341 342 343 344 345 346 345 344 342 341 339 338 337 336 336 335 334 332 332 332 333 333 333 332 331
307 305 298 295 293 296 304 305 306 305 305 306 311 312 313 324 330 334 337 335 337 335 336 337 336 339 341 342 343 344 344 344 343 341 340 337 336 337 336 334 333 332 332 332 332 331 331 332 333
304 301 297 299 296 295 301 305 303 304 304 305 314 309 311 319 329 334 333 334 335 335 335 334 335 336 335 337 339 341 343 342 342 341 339 338 336 336 336 336 335 334 332 331 332 332 330 329 331
305 302 302 301 295 299 300 302 303 305 303 307 316 308 310 320 328 330 332 332 331 332 333 331 331 332 332 333 332 334 337 339 339 338 336 333 333 333 333 331 333 333 333 333 333 333 332 330 330
307 298 300 301 299 299 300 299 303 304 305 305 309 314 315 325 328 329 329 329 330 330 331 331 330 330 330 330 329 329 330 331 333 332 330 328 329 328 328 327 330 334 334 333 332 332 331 330 329
302 297 301 305 302 301 300 300 302 301 301 306 310 316 322 324 327 326 327 328 328 329 329 330 330 329 329 332 328 326 328 327 328 328 328 328 326 324 326 323 326 330 331 333 333 332 331 327 319
300 297 302 302 305 306 303 301 302 301 299 304 307 316 321 321 322 325 326 328 328 329 329 330 330 329 329 329 326 324 324 323 323 323 324 325 324 321 321 320 321 321 320 323 326 325 324 321 319
296 301 301 304 303 305 303 306 302 302 303 306 308 320 322 322 321 323 325 326 327 326 328 329 329 329 328 329 326 325 325 322 321 322 322 322 321 319 319 318 318 318 319 319 318 317 319 319 320
296 297 300 301 302 302 305 303 303 305 308 307 314 322 323 323 323 324 325 326 327 327 329 328 329 328 328 326 325 323 324 325 323 322 322 321 320 320 318 318 318 317 318 317 316 315 316 316 316
298 298 297 298 299 301 303 301 303 303 306 306 318 319 321 323 324 323 323 323 326 328 329 330 328 329 328 326 324 324 323 325 324 323 323 323 322 320 318 318 318 317 317 317 316 316 315 315 315
299 295 294 295 297 298 301 296 300 303 304 304 310 316 319 322 323 324 326 325 326 329 330 330 329 329 328 327 326 326 324 323 323 324 323 324 324 322 321 319 318 319 318 317 316 316 315 314 314
295 292 288 294 296 299 297 289 297 297 300 302 302 305 312 318 321 324 326 327 327 328 329 330 332 330 328 329 327 327 326 324 324 323 324 323 323 324 321 321 320 320 318 317 315 315 314 313 313
291 285 287 292 296 295 295 290 296 298 297 297 296 299 304 309 315 320 323 325 327 327 328 329 329 330 329 329 329 328 327 326 326 325 324 323 323 322 322 321 321 318 318 316 316 315 314 313 313
287 287 288 288 291 292 292 294 297 298 297 296 296 296 297 299 305 314 319 323 325 326 327 328 329 329 329 330 329 328 328 328 327 326 326 325 325 323 322 322 321 319 318 317 315 316 314 315 315
292 289 287 289 294 291 291 292 296 297 296 296 297 297 297 298 302 303 311 318 322 323 325 326 327 329 328 327 326 325 325 327 328 327 326 325 326 324 324 324 322 320 320 320 318 317 316 316 315
291 289 287 291 293 292 290 290 293 294 295 296 296 297 297 297 299 301 302 305 316 321 322 325 326 327 328 328 328 327 325 325 326 328 327 326 325 325 324 325 324 323 322 321 320 319 316 316 316
288 287 286 287 292 291 286 285 289 293 293 294 295 296 296 297 299 300 300 301 306 314 319 322 324 326 328 329 327 324 322 322 321 323 324 326 326 326 325 325 324 323 322 322 321 320 319 318 315
285 291 291 290 287 282 286 277 285 288 290 291 293 292 294 295 296 298 300 300 300 305 314 318 321 324 327 328 326 324 324 322 324 325 325 325 326 326 326 325 325 324 322 321 321 322 321 320 318
288 293 291 290 285 283 281 281 283 287 287 290 292 293 292 293 294 296 298 300 300 301 301 308 315 319 323 327 327 325 323 325 326 324 324 325 326 325 325 324 324 323 322 321 321 320 320 321 320
294 291 290 288 285 276 282 282 280 284 288 289 291 293 293 294 295 296 297 298 298 299 300 302 305 309 316 321 325 325 324 324 324 323 323 325 325 324 324 324 323 323 323 321 321 321 321 321 321
291 287 277 276 275 274 280 281 282 288 290 289 291 292 293 295 295 295 295 296 296 297 297 298 300 301 304 308 313 320 323 323 323 323 323 323 322 323 323 324 323 323 323 323 322 322 321 321 321
289 287 279 273 274 275 281 278 282 288 289 290 292 293 295 295 295 295 296 296 296 297 299 298 299 300 301 302 303 305 308 315 321 322 323 323 323 324 324 323 324 323 323 322 322 323 323 323 322
289 285 288 282 271 274 278 281 286 288 289 289 291 292 293 294 294 294 295 296 297 298 300 300 301 302 302 303 303 303 303 304 306 312 317 321 322 322 322 323 323 323 323 322 322 323 323 323 323
290 292 284 283 271 269 277 278 280 284 286 288 290 291 292 294 295 295 295 294 296 298 299 300 302 302 303 304 306 306 306 305 305 306 309 313 317 317 318 319 321 322 322 322 322 322 323 321 321
288 287 286 286 282 275 272 276 283 286 287 287 289 290 291 292 293 293 295 294 295 296 298 299 299 300 301 302 304 306 307 308 308 308 308 310 313 314 316 318 319 319 321 322 322 322 322 320 320
290 286 286 279 277 280 280 278 287 288 289 289 290 291 292 292 292 293 293 294 295 295 296 297 298 298 299 300 301 303 304 305 306 307 309 309 308 309 311 313 314 315 317 320 319 319 318 317 317
Wind_Speed
4 1 3 5 4 5 1 2 1 3 1 3 3 5 6 2 5 4 2 6 14 13 10 10 13 14 13 14 15 13 11 14 14 13 12 12 12 12 10 9 10 9 10 9 9 9 8 8 8
1 3 5 3 5 3 5 4 5 3 4 7 6 4 3 2 3 5 7 10 16 13 10 8 12 13 14 13 14 14 13 12 12 11 11 11 11 10 10 9 8 8 8 8 8 8 7 6 7
5 2 4 5 4 4 5 3 4 3 6 3 4 4 3 3 2 10 3 13 14 12 10 10 13 14 14 12 15 13 14 13 12 11 11 10 10 10 9 9 7 6 7 7 7 6 5 5 5
2 4 5 4 3 4 4 4 3 5 2 4 4 5 1 2 7 6 14 14 12 11 9 11 14 14 14 12 12 14 14 13 12 11 10 10 9 9 7 8 7 6 4 4 4 5 3 3 4
4 3 4 1 4 3 2 3 5 3 2 2 2 3 2 3 5 13 12 12 12 9 8 10 13 14 14 13 12 13 13 12 11 11 11 10 10 8 7 5 6 6 5 3 2 2 1 1 2
4 3 4 1 3 2 2 4 4 2 1 2 6 5 2 1 8 10 11 9 8 11 9 8 11 11 12 13 12 10 11 11 11 11 11 11 10 9 8 7 4 2 6 5 3 1 1 2 3
4 3 2 1 3 1 3 5 4 5 4 3 9 5 2 3 5 9 9 8 7 7 8 6 7 9 11 11 10 11 10 11 11 12 11 11 10 9 9 7 7 6 4 3 5 4 4 3 4
5 4 1 2 2 3 2 4 3 5 3 3 2 4 5 5 8 7 7 8 7 7 7 6 6 6 6 6 9 10 11 11 11 11 10 9 9 10 8 7 7 8 7 7 6 6 6 6 6
3 5 1 2 2 3 1 3 0 0 5 2 2 6 3 12 11 9 6 5 7 6 8 7 7 6 5 5 6 8 8 8 10 9 9 7 4 5 7 6 8 7 7 8 8 8 8 7 7
4 4 6 1 2 3 2 2 4 3 2 1 1 2 5 13 15 13 14 12 12 14 9 8 8 7 5 5 5 5 4 4 4 5 6 4 5 5 5 6 8 9 9 9 10 10 8 6 3
3 5 5 3 2 3 1 1 1 5 3 7 8 6 7 10 10 13 12 13 16 10 8 10 9 8 8 6 4 3 3 3 3 5 5 4 3 4 3 2 3 3 5 3 5 5 3 4 4
2 5 4 2 2 2 1 1 2 5 6 1 8 10 11 13 13 15 14 12 11 11 12 10 9 9 10 6 5 5 4 4 4 5 6 4 3 4 4 3 4 4 3 5 4 3 4 5 5
3 1 1 3 6 3 3 4 4 6 9 2 6 9 15 13 15 12 10 8 9 12 12 11 11 10 9 8 5 4 6 5 6 5 6 5 5 5 4 4 4 4 4 4 4 4 4 5 5
3 2 3 2 2 3 3 3 1 6 2 3 8 11 11 13 16 8 8 12 13 13 13 12 12 12 10 9 7 7 6 6 6 5 6 7 6 5 5 4 5 4 4 4 4 5 5 5 4
2 2 3 4 2 4 6 4 10 6 2 2 6 7 7 11 7 15 16 16 16 14 12 14 13 12 11 12 10 8 7 6 6 7 7 9 8 7 6 5 5 6 5 6 4 5 4 4 4
2 3 2 4 3 5 7 8 13 2 4 9 6 7 8 11 14 14 11 13 11 12 15 13 12 13 13 11 9 8 7 7 7 7 7 10 9 9 7 6 7 5 5 5 4 4 4 4 4
4 3 4 6 7 1 5 5 7 3 5 4 3 6 7 8 9 11 11 12 13 14 13 14 13 14 14 12 9 9 9 8 8 7 7 8 10 9 9 7 7 6 5 5 5 5 5 4 5
6 4 4 4 1 2 1 8 9 5 4 6 7 7 8 8 12 9 12 13 12 10 12 12 11 14 13 10 8 6 7 7 7 8 8 9 8 9 9 8 8 6 5 5 4 6 4 5 5
4 1 2 3 0 1 5 6 15 5 5 9 9 8 9 10 10 8 10 12 11 10 10 13 13 14 9 8 7 7 10 9 8 8 9 9 9 9 10 8 7 7 9 9 8 5 7 6 4
2 1 3 6 3 2 5 7 11 7 6 7 9 10 11 8 9 9 9 7 9 13 14 14 15 13 11 9 8 6 5 6 7 7 9 11 11 11 10 11 10 9 8 9 9 10 5 5 5
2 4 3 4 5 0 3 7 6 7 3 5 8 9 10 13 14 11 7 8 7 9 11 13 13 14 12 14 5 2 1 0 2 7 8 11 11 12 12 13 12 10 9 10 10 10 11 8 4
4 6 4 2 1 5 3 8 6 6 7 4 10 9 12 10 7 9 8 8 6 9 5 7 8 10 11 12 9 12 11 10 9 9 7 9 12 14 13 14 12 12 9 11 10 8 10 9 10
5 3 5 3 2 2 1 3 8 2 5 9 9 7 7 7 8 9 8 8 7 5 5 6 6 6 8 13 14 11 12 10 9 5 9 10 9 12 13 13 13 12 10 11 11 10 11 10 10
5 5 6 4 2 3 7 6 4 5 6 5 5 8 9 10 9 8 7 8 7 6 6 5 4 5 4 4 9 13 14 12 9 8 7 8 7 7 11 12 12 12 12 12 11 12 12 11 10
2 6 2 3 1 7 4 2 5 10 5 4 7 9 10 10 10 9 9 9 9 9 8 6 5 5 4 3 5 6 9 9 11 11 8 8 6 6 10 13 11 10 13 13 11 12 13 12 12
6 6 5 6 4 3 3 6 6 5 7 5 7 7 12 14 11 10 10 8 8 9 9 7 7 6 5 3 5 6 6 5 7 8 9 8 9 9 9 10 12 13 13 12 12 11 11 13 11
4 6 5 5 3 3 4 6 9 5 9 11 11 13 12 12 11 10 10 8 9 9 8 7 6 5 5 5 4 5 5 6 6 7 7 7 7 7 8 10 11 12 12 12 12 10 11 12 12
3 4 3 1 3 4 4 4 6 5 7 8 13 13 12 12 11 12 10 8 7 6 6 8 7 6 5 6 5 4 6 5 6 5 8 8 9 7 7 9 10 10 11 11 12 11 11 11 10
2 2 2 3 3 4 0 6 4 7 4 6 7 8 8 10 10 8 9 8 7 7 7 7 7 8 8 7 6 6 6 6 5 5 6 7 7 7 8 9 9 10 11 11 11 12 12 13 13
2 1 4 4 4 3 2 6 9 7 4 4 5 7 9 8 10 9 7 7 9 8 7 8 7 8 7 7 7 7 7 6 6 6 7 6 6 6 7 7 8 8 9 10 11 11 9 11 11
Wind_Direction
329 158 82 47 54 62 271 232 158 118 51 314 122 138 173 110 159 207 114 147 132 144 147 150 153 152 140 147 142 146 138 136 136 134 132 134 127 123 123 109 119 114 107 103 100 96 92 90 86
289 127 46 84 83 68 276 267 182 176 146 119 67 64 57 124 89 118 122 159 146 144 146 147 150 154 148 145 150 150 149 147 143 144 142 142 139 139 134 134 129 122 118 114 108 100 91 79 70
131 48 87 95 110 174 209 217 185 114 163 164 97 55 151 159 20 157 147 149 144 145 147 152 151 157 157 152 160 162 153 153 157 157 155 156 154 153 149 140 136 135 135 126 116 102 89 74 65
83 15 38 85 237 232 214 197 202 141 177 66 123 72 3 225 153 184 144 144 144 146 145 155 155 159 163 162 155 158 154 156 159 164 168 167 166 167 162 158 160 150 141 138 132 125 104 66 43
37 55 59 75 255 272 238 182 168 131 146 94 117 181 5 30 114 130 144 148 148 146 146 155 159 162 165 171 172 164 163 164 168 171 171 177 181 180 172 178 168 166 158 137 136 91 110 19 352
37 86 66 287 262 301 118 170 161 140 145 153 75 117 172 34 123 147 143 147 153 149 154 162 164 166 170 173 179 180 170 171 179 180 180 177 182 189 194 192 176 159 197 185 190 193 254 292 286
94 67 205 271 196 335 199 142 173 174 148 222 149 130 267 168 161 146 143 137 143 153 157 164 169 175 175 179 181 187 183 191 191 189 187 183 183 191 196 199 212 212 194 207 208 222 249 271 292
100 89 299 46 231 228 189 156 134 152 200 83 148 182 236 191 148 118 126 138 142 157 165 168 171 173 180 185 192 193 196 198 201 194 191 189 192 195 196 197 213 220 226 231 235 241 251 261 270
106 58 304 12 6 289 131 134 11 15 119 97 173 158 246 127 126 128 133 147 162 172 180 177 176 180 183 188 200 203 209 217 208 198 192 191 193 209 204 203 214 226 223 233 243 249 258 265 275
93 116 218 253 282 284 192 176 177 138 120 223 194 19 109 134 156 163 177 185 192 191 191 187 184 183 176 196 200 209 210 211 194 193 196 192 196 200 205 210 214 224 231 233 239 245 248 264 269
151 183 209 230 284 342 146 319 206 134 233 214 206 165 157 151 166 179 191 196 199 196 196 191 187 182 184 195 188 201 198 196 201 202 201 196 198 216 221 227 241 240 251 254 261 270 262 254 254
203 212 204 236 350 356 309 330 300 187 231 77 229 161 165 173 183 188 196 197 191 191 198 194 194 189 192 196 196 197 197 198 204 205 199 190 201 208 216 214 222 224 228 234 236 250 257 259 255
191 238 214 344 312 274 317 250 242 257 257 310 124 156 181 191 199 199 204 206 193 205 202 198 190 194 199 194 192 193 206 204 211 207 205 192 201 213 207 217 216 218 212 219 234 236 248 256 259
171 103 325 273 253 279 211 249 115 270 287 142 159 187 197 198 203 193 190 202 206 208 208 199 199 199 192 199 194 202 202 206 205 209 214 211 210 208 206 215 224 228 213 222 227 228 232 244 249
326 108 347 264 223 244 170 271 235 227 344 279 209 213 223 228 201 213 211 211 205 211 206 206 203 199 197 201 200 201 202 198 209 215 212 211 211 214 213 212 216 220 210 223 231 243 243 255 252
174 56 106 271 173 256 137 263 267 217 219 259 261 249 237 234 224 227 224 224 214 212 207 204 203 201 204 206 202 206 205 204 211 212 212 213 213 211 211 217 224 214 212 212 213 221 239 240 240
352 217 180 303 203 106 171 255 280 16 174 283 297 280 261 260 249 238 229 227 220 211 210 211 204 206 204 207 202 206 207 207 213 212 214 212 213 211 214 219 227 200 208 209 215 227 213 225 238
205 211 223 216 181 161 175 259 268 276 348 279 282 286 282 274 257 237 230 232 230 220 216 216 209 213 206 205 206 210 215 217 213 213 217 211 217 210 212 225 223 199 213 221 209 223 219 227 231
118 221 217 245 108 30 247 252 268 275 290 288 292 283 269 252 263 248 234 232 223 217 210 209 210 214 202 204 207 221 222 222 222 215 213 203 215 213 216 226 217 205 220 225 210 207 223 243 194
121 337 274 287 333 172 303 266 272 275 249 234 252 272 268 280 269 254 254 235 218 225 220 220 217 208 206 209 214 213 199 228 228 222 216 208 208 215 219 226 229 219 225 228 216 215 221 235 178
168 171 211 254 335 181 325 282 260 280 229 273 267 251 265 256 274 278 261 238 232 228 222 223 220 213 205 209 197 155 71 236 198 220 223 220 211 215 218 221 223 223 216 230 223 212 214 235 204
202 193 181 190 115 246 21 286 303 276 296 268 275 269 269 280 289 277 277 276 242 247 261 241 225 211 208 198 198 206 216 227 230 231 230 230 217 219 218 223 224 223 215 224 222 211 215 214 230
212 157 163 160 171 8 297 287 265 350 291 274 263 283 316 308 301 296 297 285 297 303 277 269 258 222 200 197 203 205 217 230 239 217 225 224 223 217 217 217 218 220 217 224 220 211 209 214 225
155 91 52 58 92 298 181 177 231 190 221 274 325 331 344 343 336 0 4 357 346 359 6 4 334 274 266 245 220 220 229 235 240 234 231 232 225 219 219 219 218 220 222 220 215 215 214 214 221
114 104 17 4 12 232 3 210 280 285 277 321 326 351 357 2 359 353 1 357 344 345 343 343 351 322 338 313 266 249 245 241 245 243 237 239 225 216 220 219 220 219 219 222 217 213 216 216 219
175 161 165 202 201 266 39 238 252 237 330 339 40 40 30 16 4 4 353 349 343 339 339 349 341 331 346 323 293 283 268 263 260 254 250 243 238 232 223 216 222 223 221 220 217 221 219 221 220
196 206 163 102 24 52 229 289 299 23 36 45 33 25 12 7 358 350 340 351 346 344 334 332 324 322 327 320 305 289 279 263 258 262 259 255 255 238 228 222 223 224 219 217 217 224 223 223 222
145 168 114 65 191 240 259 262 233 51 50 27 22 6 353 353 354 351 348 340 331 327 321 326 319 301 304 315 304 296 296 283 267 265 265 262 261 245 238 232 231 231 224 220 220 226 226 219 219
108 190 110 144 184 182 205 258 191 114 82 56 356 339 339 339 336 330 333 332 328 340 355 338 339 334 330 329 316 311 305 306 309 287 275 265 265 257 248 246 241 231 229 227 229 227 224 221 221
132 297 177 154 215 233 185 261 135 122 122 90 313 316 321 321 320 320 322 327 339 345 345 340 336 332 320 313 313 313 327 324 315 303 301 303 288 274 256 248 242 235 229 231 231 231 223 218 220